| time (UTC) | temp F | wind direction | speed knots | gust knots | rain 1hr in | rain 24hr in | rain mn in | humidity % | barometer mb |
| 20260502163603 | 56 | 273 | 0.9 | 3.5 | 0.00 | 0.00 | 0.00 | 44 | 1015.1 |
| 20260502162704 | 56 | 276 | 0.9 | 3.5 | 0.00 | 0.00 | 0.00 | 44 | 1015.3 |
| 20260502161803 | 55 | 288 | 0.0 | 1.7 | 0.00 | 0.00 | 0.00 | 49 | 1015.2 |
| 20260502160903 | 54 | 273 | 0.9 | 3.5 | 0.00 | 0.00 | 0.00 | 43 | 1015.4 |
| 20260502151803 | 53 | 256 | 0.9 | 1.7 | 0.00 | 0.00 | 0.00 | 54 | 1015.4 |
| 20260502150903 | 52 | 291 | 0.0 | 0.9 | 0.00 | 0.00 | 0.00 | 53 | 1015.5 |
| 20260502123603 | 49 | 225 | 0.9 | 2.6 | 0.00 | 0.00 | 0.00 | 62 | 1015.5 |
| 20260502122703 | 49 | 252 | 0.9 | 2.6 | 0.00 | 0.00 | 0.00 | 60 | 1015.5 |
| 20260502121803 | 48 | 245 | 0.9 | 1.7 | 0.00 | 0.00 | 0.00 | 60 | 1015.6 |
| 20260502120904 | 48 | 224 | 0.9 | 1.7 | 0.00 | 0.00 | 0.00 | 59 | 1015.5 |
| 20260502115403 | 48 | 238 | 0.9 | 2.6 | 0.00 | 0.00 | 0.00 | 58 | 1015.2 |
| 20260502114503 | 48 | 265 | 0.0 | 2.6 | 0.00 | 0.00 | 0.00 | 59 | 1015.2 |
| 20260502113603 | 48 | 213 | 0.9 | 3.5 | 0.00 | 0.00 | 0.00 | 57 | 1014.9 |
| 20260502112703 | 49 | 222 | 0.9 | 3.5 | 0.00 | 0.00 | 0.00 | 56 | 1014.8 |
| 20260502111803 | 49 | 226 | 0.9 | 3.5 | 0.00 | 0.00 | 0.00 | 56 | 1014.8 |
| 20260502110903 | 49 | 223 | 0.9 | 2.6 | 0.00 | 0.00 | 0.00 | 57 | 1014.9 |
| 20260502110004 | 48 | 268 | 0.9 | 1.7 | 0.00 | 0.00 | 0.00 | 60 | 1014.8 |
| 20260502105403 | 49 | 249 | 0.0 | 1.7 | 0.00 | 0.00 | 0.00 | 56 | 1014.7 |
| 20260502104503 | 48 | 238 | 0.9 | 1.7 | 0.00 | 0.00 | 0.00 | 57 | 1014.8 |
| 20260502103603 | 48 | 244 | 0.0 | 0.9 | 0.00 | 0.00 | 0.00 | 56 | 1014.7 |
| 20260502102703 | 48 | 240 | 0.0 | 0.9 | 0.00 | 0.00 | 0.00 | 56 | 1014.8 |
| 20260502101803 | 49 | 251 | 0.0 | 0.9 | 0.00 | 0.00 | 0.00 | 57 | 1014.9 |
| 20260502100925 | 49 | 0 | 0.0 | 0.0 | 0.00 | 0.00 | 0.00 | 60 | 1014.9 |
| 20260502090903 | 50 | 231 | 0.0 | 1.7 | 0.00 | 0.00 | 0.00 | 61 | 1014.8 |
| 20260502070903 | 51 | 209 | 0.9 | 5.2 | 0.00 | 0.00 | 0.00 | 70 | 1014.2 |
| 20260502070004 | 51 | 258 | 0.0 | 0.9 | 0.00 | 0.00 | 0.00 | 69 | 1014.5 |
| 20260502065403 | 51 | 254 | 0.0 | 1.7 | 0.00 | 0.00 | 0.00 | 68 | 1014.3 |
| 20260502064503 | 51 | 222 | 0.9 | 5.2 | 0.00 | 0.00 | 0.00 | 67 | 1014.2 |
| 20260502063603 | 51 | 250 | 0.0 | 0.9 | 0.00 | 0.00 | 0.00 | 69 | 1014.3 |
| 20260502062703 | 51 | 263 | 0.0 | 1.7 | 0.00 | 0.00 | 0.00 | 68 | 1014.5 |
| 20260502061803 | 51 | 237 | 0.0 | 2.6 | 0.00 | 0.00 | 0.00 | 69 | 1014.4 |
| 20260502060903 | 52 | 216 | 0.0 | 2.6 | 0.00 | 0.00 | 0.00 | 65 | 1014.6 |
| 20260502060003 | 52 | 229 | 0.9 | 3.5 | 0.00 | 0.00 | 0.00 | 65 | 1014.9 |
| 20260502055403 | 52 | 238 | 0.9 | 3.5 | 0.00 | 0.00 | 0.00 | 64 | 1014.6 |
| 20260502054503 | 52 | 265 | 0.0 | 0.9 | 0.00 | 0.00 | 0.00 | 65 | 1014.3 |
| 20260502053603 | 53 | 256 | 0.0 | 1.7 | 0.00 | 0.00 | 0.00 | 67 | 1014.4 |
| 20260502052703 | 53 | 231 | 0.9 | 1.7 | 0.00 | 0.00 | 0.00 | 67 | 1014.3 |
| 20260502051803 | 53 | 233 | 0.9 | 1.7 | 0.00 | 0.00 | 0.00 | 64 | 1014.6 |
| 20260502050903 | 54 | 221 | 0.9 | 3.5 | 0.00 | 0.00 | 0.00 | 66 | 1014.4 |
| 20260502050024 | 54 | 225 | 0.0 | 2.6 | 0.00 | 0.00 | 0.00 | 66 | 1014.5 |
| 20260502045403 | 54 | 232 | 0.0 | 1.7 | 0.00 | 0.00 | 0.00 | 65 | 1014.5 |
| 20260502044504 | 55 | 227 | 0.0 | 2.6 | 0.00 | 0.00 | 0.00 | 65 | 1014.6 |
| 20260502043603 | 55 | 226 | 0.9 | 6.1 | 0.00 | 0.00 | 0.00 | 64 | 1014.5 |
| 20260502042703 | 55 | 234 | 0.9 | 6.1 | 0.00 | 0.00 | 0.00 | 64 | 1014.3 |
| 20260502041803 | 55 | 241 | 0.0 | 1.7 | 0.00 | 0.00 | 0.00 | 65 | 1014.4 |
| 20260502040903 | 56 | 241 | 0.0 | 1.7 | 0.00 | 0.00 | 0.00 | 64 | 1014.3 |
| 20260502040004 | 56 | 257 | 0.0 | 1.7 | 0.00 | 0.00 | 0.00 | 64 | 1014.3 |
| 20260502035403 | 56 | 233 | 0.0 | 1.7 | 0.00 | 0.00 | 0.00 | 64 | 1014.4 |
| 20260502034503 | 56 | 224 | 0.9 | 3.5 | 0.00 | 0.00 | 0.00 | 63 | 1014.2 |
| 20260502033604 | 57 | 237 | 0.9 | 2.6 | 0.00 | 0.00 | 0.00 | 62 | 1014.3 |
| 20260502032703 | 57 | 239 | 0.9 | 2.6 | 0.00 | 0.00 | 0.00 | 61 | 1014.1 |
| 20260502031803 | 57 | 229 | 0.9 | 3.5 | 0.00 | 0.00 | 0.00 | 61 | 1013.9 |
| 20260502030903 | 58 | 242 | 0.9 | 3.5 | 0.00 | 0.00 | 0.00 | 59 | 1013.7 |
| 20260502030003 | 58 | 240 | 0.9 | 2.6 | 0.00 | 0.00 | 0.00 | 57 | 1013.6 |
| 20260502025403 | 58 | 231 | 0.0 | 2.6 | 0.00 | 0.00 | 0.00 | 57 | 1013.5 |
| 20260502024503 | 58 | 225 | 0.9 | 3.5 | 0.00 | 0.00 | 0.00 | 57 | 1013.8 |
| 20260502023603 | 59 | 246 | 0.0 | 1.7 | 0.00 | 0.00 | 0.00 | 60 | 1013.6 |
| 20260502022703 | 60 | 218 | 0.9 | 5.2 | 0.00 | 0.00 | 0.00 | 56 | 1013.2 |
| 20260502021803 | 59 | 238 | 0.9 | 2.6 | 0.00 | 0.00 | 0.00 | 59 | 1013.0 |
| 20260502020903 | 59 | 273 | 0.0 | 0.9 | 0.00 | 0.00 | 0.00 | 61 | 1012.7 |
| 20260502020024 | 59 | 268 | 0.0 | 0.9 | 0.00 | 0.00 | 0.00 | 62 | 1012.7 |
| 20260502015403 | 58 | 229 | 0.9 | 2.6 | 0.00 | 0.00 | 0.00 | 65 | 1012.5 |
| 20260502014503 | 60 | 218 | 0.9 | 1.7 | 0.00 | 0.00 | 0.00 | 59 | 1012.3 |
| 20260502013603 | 58 | 324 | 0.0 | 0.9 | 0.00 | 0.00 | 0.00 | 63 | 1012.4 |
| 20260502012724 | 58 | 294 | 0.0 | 0.9 | 0.00 | 0.00 | 0.00 | 66 | 1012.3 |
| 20260502011803 | 58 | 260 | 0.0 | 1.7 | 0.00 | 0.00 | 0.00 | 61 | 1012.1 |
| 20260502010903 | 57 | 244 | 0.9 | 3.5 | 0.00 | 0.00 | 0.00 | 65 | 1012.3 |
| 20260502010003 | 58 | 230 | 0.0 | 1.7 | 0.00 | 0.00 | 0.00 | 62 | 1011.9 |
| 20260502005403 | 59 | 243 | 0.0 | 1.7 | 0.00 | 0.00 | 0.00 | 60 | 1011.8 |
| 20260502004503 | 59 | 239 | 0.0 | 1.7 | 0.00 | 0.00 | 0.00 | 59 | 1011.6 |
| 20260502003603 | 59 | 237 | 0.9 | 1.7 | 0.00 | 0.00 | 0.00 | 58 | 1011.6 |
| 20260502002724 | 59 | 325 | 0.0 | 0.9 | 0.00 | 0.00 | 0.00 | 61 | 1011.5 |
| 20260502001803 | 60 | 295 | 0.9 | 3.5 | 0.00 | 0.00 | 0.00 | 61 | 1011.2 |
| 20260502000903 | 61 | 264 | 0.9 | 2.6 | 0.00 | 0.00 | 0.00 | 54 | 1011.1 |
| 20260502000005 | 61 | 231 | 1.7 | 3.5 | 0.00 | 0.00 | 0.00 | 55 | 1010.8 |
| 20260501235426 | 61 | 241 | 1.7 | 3.5 | 0.00 | 0.00 | 0.00 | 54 | 1010.6 |
| 20260501234526 | 62 | 248 | 1.7 | 6.1 | 0.00 | 0.00 | 0.00 | 53 | 1010.4 |
| 20260501233605 | 62 | 282 | 1.7 | 5.2 | 0.00 | 0.00 | 0.00 | 53 | 1010.6 |
| 20260501232705 | 62 | 250 | 1.7 | 5.2 | 0.00 | 0.00 | 0.00 | 51 | 1010.6 |
| 20260501231826 | 62 | 211 | 1.7 | 3.5 | 0.00 | 0.00 | 0.00 | 52 | 1010.5 |
| 20260501230905 | 63 | 238 | 1.7 | 3.5 | 0.00 | 0.00 | 0.00 | 53 | 1010.7 |
| 20260501230005 | 63 | 252 | 1.7 | 5.2 | 0.00 | 0.00 | 0.00 | 51 | 1010.6 |
| 20260501225404 | 64 | 258 | 0.9 | 3.5 | 0.00 | 0.00 | 0.00 | 51 | 1010.6 |
| 20260501224505 | 64 | 252 | 1.7 | 6.1 | 0.00 | 0.00 | 0.00 | 50 | 1010.7 |
| 20260501223626 | 64 | 245 | 0.9 | 3.5 | 0.00 | 0.00 | 0.00 | 49 | 1010.6 |
| 20260501222705 | 64 | 247 | 1.7 | 6.1 | 0.00 | 0.00 | 0.00 | 49 | 1010.5 |
| 20260501221805 | 65 | 226 | 1.7 | 7.0 | 0.00 | 0.00 | 0.00 | 48 | 1010.6 |
| 20260501220905 | 65 | 229 | 1.7 | 7.8 | 0.00 | 0.00 | 0.00 | 47 | 1010.8 |
| 20260501220005 | 65 | 236 | 1.7 | 5.2 | 0.00 | 0.00 | 0.00 | 48 | 1010.8 |
| 20260501215404 | 65 | 242 | 1.7 | 5.2 | 0.00 | 0.00 | 0.00 | 46 | 1010.9 |
| 20260501214505 | 65 | 239 | 2.6 | 8.7 | 0.00 | 0.00 | 0.00 | 47 | 1011.3 |
| 20260501213605 | 65 | 235 | 2.6 | 6.1 | 0.00 | 0.00 | 0.00 | 47 | 1010.9 |
| 20260501212704 | 67 | 246 | 1.7 | 5.2 | 0.00 | 0.00 | 0.00 | 44 | 1011.1 |
| 20260501211825 | 67 | 253 | 1.7 | 5.2 | 0.00 | 0.00 | 0.00 | 44 | 1011.4 |
| 20260501210904 | 66 | 231 | 1.7 | 3.5 | 0.00 | 0.00 | 0.00 | 46 | 1011.2 |
| 20260501210005 | 68 | 246 | 2.6 | 6.1 | 0.00 | 0.00 | 0.00 | 45 | 1011.4 |
| 20260501205405 | 67 | 260 | 1.7 | 6.1 | 0.00 | 0.00 | 0.00 | 42 | 1011.4 |
| 20260501204505 | 67 | 249 | 1.7 | 3.5 | 0.00 | 0.00 | 0.00 | 45 | 1011.3 |
| 20260501203604 | 66 | 239 | 1.7 | 5.2 | 0.00 | 0.00 | 0.00 | 44 | 1011.5 |
| 20260501202705 | 66 | 235 | 1.7 | 6.1 | 0.00 | 0.00 | 0.00 | 44 | 1011.8 |
| 20260501201804 | 69 | 240 | 1.7 | 5.2 | 0.00 | 0.00 | 0.00 | 40 | 1011.7 |
| 20260501200905 | 68 | 228 | 2.6 | 7.0 | 0.00 | 0.00 | 0.00 | 42 | 1011.9 |
| 20260501200005 | 70 | 234 | 2.6 | 6.1 | 0.00 | 0.00 | 0.00 | 39 | 1012.0 |
| 20260501195404 | 69 | 232 | 2.6 | 7.0 | 0.00 | 0.00 | 0.00 | 40 | 1012.3 |
| 20260501194505 | 70 | 233 | 2.6 | 8.7 | 0.00 | 0.00 | 0.00 | 39 | 1012.4 |
| 20260501193604 | 71 | 225 | 2.6 | 5.2 | 0.00 | 0.00 | 0.00 | 39 | 1012.5 |
| 20260501192705 | 67 | 270 | 1.7 | 5.2 | 0.00 | 0.00 | 0.00 | 45 | 1012.7 |
| 20260501191804 | 67 | 258 | 2.6 | 7.0 | 0.00 | 0.00 | 0.00 | 41 | 1012.9 |
| 20260501190905 | 69 | 237 | 2.6 | 7.8 | 0.00 | 0.00 | 0.00 | 39 | 1013.2 |
| 20260501190005 | 69 | 263 | 1.7 | 7.0 | 0.00 | 0.00 | 0.00 | 38 | 1013.3 |
| 20260501185405 | 67 | 284 | 2.6 | 7.0 | 0.00 | 0.00 | 0.00 | 44 | 1013.3 |
| 20260501184526 | 69 | 253 | 2.6 | 6.1 | 0.00 | 0.00 | 0.00 | 42 | 1013.5 |
| 20260501183605 | 66 | 278 | 2.6 | 7.8 | 0.00 | 0.00 | 0.00 | 45 | 1013.6 |
| 20260501182705 | 66 | 284 | 2.6 | 6.1 | 0.00 | 0.00 | 0.00 | 44 | 1013.6 |
| 20260501181826 | 65 | 266 | 2.6 | 6.1 | 0.00 | 0.00 | 0.00 | 43 | 1013.9 |
| 20260501180905 | 66 | 246 | 2.6 | 7.0 | 0.00 | 0.00 | 0.00 | 43 | 1014.0 |
| 20260501180004 | 67 | 247 | 2.6 | 6.1 | 0.00 | 0.00 | 0.00 | 43 | 1014.2 |
| 20260501175404 | 64 | 270 | 2.6 | 7.0 | 0.00 | 0.00 | 0.00 | 47 | 1014.4 |
| 20260501174504 | 64 | 265 | 2.6 | 7.0 | 0.00 | 0.00 | 0.00 | 45 | 1014.4 |
| 20260501173604 | 65 | 220 | 2.6 | 7.0 | 0.00 | 0.00 | 0.00 | 46 | 1014.5 |
| 20260501172704 | 64 | 279 | 2.6 | 5.2 | 0.00 | 0.00 | 0.00 | 47 | 1014.5 |